Rivadeo, Argentina
Current Conditions -  °F | °C
As of 5:00 PM on Tuesday 21 Oct 2014 (Local Time) from SAZN Reporting Station
Clear Clear  
Wind Chill: 88°   Ceiling: Unl
Heat Index: 88°   Visibility: 6mi
Dew Point: 52°   Wind: 7mph
Humidity: 29%   Direction: 20°NNE
Pressure: 29.74"   Gusts: NA
Location:  38.15°S, 63.06°W
Report Text: SAZN 212000Z 02006KT CAVOK 31/11 Q1007
Loading
Personal Weather Stations






























Interactive Weather Map New forecast layout! Learn more

10-Day Weather Forecast

Advertisements
Track Severe Weather on mobile